Total_Precipitation_Accumulation
0.36 0.33 0.35 0.41 0.43 0.41 0.37 0.30 0.25 0.25 0.23 0.23 0.27 0.28 0.28 0.29 0.27 0.25 0.24 0.27 0.30 0.30 0.35 0.41 0.44 0.47 0.52 0.49 0.47 0.44 0.42 0.47 0.45 0.12 0.04 0.06 0.15 0.20 0.22 0.21 0.23 0.22 0.19
0.33 0.35 0.34 0.37 0.44 0.44 0.36 0.29 0.26 0.25 0.24 0.20 0.24 0.33 0.36 0.36 0.34 0.32 0.31 0.37 0.47 0.47 0.44 0.45 0.48 0.51 0.57 0.59 0.60 0.55 0.45 0.39 0.43 0.28 0.09 0.06 0.12 0.22 0.28 0.26 0.25 0.23 0.20
0.29 0.33 0.34 0.36 0.41 0.45 0.41 0.31 0.27 0.27 0.26 0.23 0.24 0.34 0.43 0.48 0.47 0.43 0.42 0.45 0.56 0.68 0.70 0.70 0.64 0.60 0.62 0.61 0.65 0.62 0.53 0.44 0.40 0.38 0.21 0.11 0.13 0.22 0.34 0.37 0.33 0.29 0.24
0.22 0.31 0.31 0.31 0.33 0.37 0.39 0.37 0.31 0.27 0.27 0.27 0.25 0.31 0.42 0.55 0.68 0.69 0.70 0.64 0.63 0.70 0.76 0.82 0.83 0.84 0.80 0.75 0.73 0.69 0.64 0.60 0.53 0.51 0.39 0.25 0.21 0.25 0.42 0.50 0.44 0.36 0.32
0.15 0.21 0.27 0.26 0.27 0.29 0.34 0.36 0.38 0.35 0.29 0.27 0.25 0.24 0.32 0.60 1.00 1.02 0.93 0.84 0.69 0.59 0.57 0.61 0.71 0.87 0.96 1.01 1.05 0.96 0.91 0.95 0.87 0.79 0.66 0.50 0.39 0.42 0.53 0.59 0.65 0.55 0.45
0.10 0.12 0.18 0.24 0.27 0.25 0.26 0.33 0.35 0.38 0.38 0.32 0.24 0.20 0.25 0.52 0.97 1.04 0.81 0.61 0.46 0.42 0.43 0.41 0.45 0.62 0.74 0.86 1.01 1.04 1.10 1.25 1.29 1.18 0.97 0.79 0.56 0.50 0.56 0.71 0.84 0.89 0.74
0.07 0.09 0.13 0.18 0.23 0.25 0.22 0.25 0.32 0.34 0.39 0.39 0.29 0.20 0.17 0.35 0.76 0.87 0.65 0.41 0.29 0.26 0.27 0.27 0.28 0.38 0.50 0.53 0.65 0.75 0.85 1.02 1.25 1.34 1.29 0.95 0.69 0.54 0.68 0.84 0.89 0.96 0.85
0.07 0.08 0.09 0.13 0.18 0.22 0.24 0.23 0.25 0.29 0.34 0.36 0.33 0.26 0.19 0.23 0.60 0.80 0.63 0.35 0.24 0.20 0.21 0.19 0.16 0.21 0.34 0.48 0.58 0.61 0.61 0.74 1.03 1.27 1.40 1.21 0.96 0.83 0.95 1.17 1.26 1.24 1.06
0.07 0.07 0.07 0.09 0.13 0.18 0.19 0.19 0.21 0.24 0.26 0.29 0.29 0.26 0.21 0.18 0.44 0.78 0.72 0.38 0.25 0.19 0.19 0.20 0.15 0.13 0.30 0.49 0.51 0.48 0.44 0.51 0.67 0.97 1.18 1.22 1.19 1.23 1.32 1.57 1.72 1.66 1.49
0.05 0.05 0.06 0.08 0.09 0.13 0.16 0.15 0.18 0.21 0.22 0.23 0.25 0.23 0.20 0.17 0.30 0.69 0.87 0.48 0.29 0.21 0.18 0.18 0.24 0.27 0.38 0.46 0.42 0.44 0.51 0.47 0.45 0.52 0.62 0.72 0.80 0.87 1.09 1.39 1.57 1.65 1.63
0.05 0.06 0.05 0.06 0.08 0.09 0.14 0.16 0.17 0.18 0.21 0.23 0.22 0.21 0.18 0.18 0.23 0.50 0.88 0.70 0.43 0.32 0.27 0.23 0.22 0.30 0.36 0.39 0.43 0.42 0.53 0.52 0.49 0.57 0.59 0.57 0.61 0.71 0.84 1.09 1.37 1.56 1.69
0.06 0.06 0.06 0.06 0.07 0.10 0.14 0.16 0.17 0.18 0.21 0.23 0.22 0.23 0.20 0.18 0.24 0.41 0.62 0.71 0.58 0.38 0.31 0.23 0.23 0.29 0.33 0.39 0.39 0.42 0.46 0.48 0.49 0.50 0.47 0.46 0.52 0.62 0.75 0.92 1.14 1.31 1.40
0.06 0.06 0.07 0.08 0.08 0.10 0.12 0.15 0.19 0.18 0.21 0.23 0.23 0.21 0.20 0.20 0.27 0.43 0.44 0.48 0.53 0.46 0.43 0.41 0.35 0.35 0.33 0.27 0.27 0.33 0.36 0.35 0.43 0.45 0.40 0.36 0.43 0.56 0.64 0.75 0.89 1.07 1.20
0.07 0.07 0.07 0.09 0.11 0.11 0.12 0.12 0.16 0.19 0.26 0.30 0.28 0.23 0.21 0.24 0.39 0.56 0.46 0.37 0.44 0.50 0.49 0.47 0.43 0.40 0.31 0.22 0.20 0.20 0.21 0.27 0.35 0.40 0.35 0.30 0.33 0.44 0.56 0.69 0.85 0.99 1.17
0.08 0.08 0.09 0.10 0.12 0.14 0.14 0.13 0.13 0.15 0.28 0.38 0.32 0.32 0.38 0.51 0.56 0.64 0.57 0.51 0.55 0.62 0.59 0.53 0.43 0.38 0.36 0.27 0.20 0.15 0.16 0.21 0.26 0.28 0.30 0.31 0.34 0.41 0.49 0.61 0.82 0.98 1.13
0.10 0.11 0.12 0.13 0.13 0.15 0.17 0.18 0.19 0.18 0.22 0.23 0.23 0.30 0.35 0.55 0.55 0.46 0.44 0.45 0.53 0.61 0.60 0.54 0.37 0.29 0.29 0.26 0.22 0.18 0.16 0.17 0.18 0.22 0.28 0.31 0.35 0.42 0.49 0.56 0.73 0.93 1.04
0.12 0.14 0.16 0.15 0.15 0.15 0.17 0.19 0.21 0.23 0.25 0.23 0.21 0.23 0.32 0.45 0.45 0.40 0.40 0.37 0.39 0.40 0.43 0.36 0.26 0.23 0.21 0.21 0.20 0.18 0.16 0.14 0.17 0.23 0.26 0.28 0.33 0.39 0.46 0.53 0.63 0.78 0.92
0.14 0.18 0.20 0.17 0.17 0.18 0.20 0.21 0.22 0.23 0.26 0.26 0.24 0.24 0.28 0.34 0.37 0.38 0.40 0.43 0.38 0.30 0.26 0.25 0.24 0.22 0.21 0.21 0.20 0.18 0.17 0.16 0.18 0.20 0.21 0.23 0.29 0.37 0.42 0.46 0.54 0.69 0.82
0.18 0.20 0.22 0.22 0.21 0.22 0.23 0.24 0.23 0.23 0.23 0.22 0.22 0.28 0.33 0.34 0.34 0.35 0.37 0.37 0.32 0.25 0.22 0.21 0.22 0.24 0.23 0.21 0.19 0.18 0.18 0.17 0.16 0.18 0.19 0.20 0.24 0.33 0.38 0.40 0.47 0.58 0.74
0.20 0.26 0.27 0.27 0.26 0.26 0.27 0.27 0.27 0.28 0.27 0.24 0.22 0.23 0.35 0.43 0.39 0.36 0.33 0.31 0.30 0.26 0.22 0.22 0.21 0.22 0.23 0.22 0.21 0.20 0.20 0.18 0.17 0.18 0.18 0.18 0.21 0.27 0.33 0.36 0.43 0.52 0.62
0.24 0.26 0.30 0.30 0.28 0.30 0.31 0.32 0.33 0.34 0.32 0.27 0.20 0.20 0.39 0.46 0.36 0.28 0.30 0.31 0.31 0.29 0.27 0.26 0.24 0.23 0.22 0.22 0.22 0.21 0.21 0.17 0.15 0.16 0.17 0.17 0.19 0.22 0.25 0.30 0.37 0.44 0.53
0.26 0.28 0.31 0.33 0.34 0.35 0.37 0.36 0.36 0.36 0.32 0.29 0.24 0.23 0.30 0.29 0.25 0.24 0.26 0.27 0.27 0.29 0.29 0.30 0.28 0.24 0.25 0.26 0.26 0.25 0.22 0.17 0.15 0.16 0.17 0.16 0.17 0.19 0.21 0.25 0.29 0.36 0.45
0.29 0.33 0.37 0.37 0.37 0.40 0.41 0.35 0.34 0.34 0.32 0.30 0.29 0.28 0.27 0.26 0.24 0.23 0.25 0.25 0.26 0.27 0.26 0.29 0.30 0.25 0.22 0.22 0.23 0.26 0.26 0.20 0.17 0.19 0.22 0.20 0.18 0.17 0.19 0.22 0.25 0.32 0.42
0.32 0.36 0.41 0.43 0.41 0.39 0.41 0.40 0.36 0.35 0.35 0.33 0.31 0.29 0.29 0.28 0.25 0.23 0.22 0.23 0.24 0.24 0.24 0.28 0.28 0.25 0.23 0.22 0.21 0.20 0.20 0.19 0.23 0.26 0.25 0.26 0.23 0.19 0.21 0.24 0.25 0.30 0.39
0.35 0.38 0.44 0.47 0.46 0.45 0.45 0.43 0.39 0.36 0.36 0.34 0.32 0.31 0.29 0.27 0.25 0.22 0.19 0.19 0.21 0.21 0.20 0.23 0.26 0.27 0.24 0.22 0.20 0.19 0.19 0.22 0.28 0.38 0.45 0.43 0.33 0.25 0.25 0.27 0.27 0.30 0.37
0.36 0.39 0.45 0.49 0.49 0.49 0.50 0.50 0.45 0.41 0.39 0.36 0.33 0.33 0.32 0.30 0.26 0.23 0.21 0.21 0.23 0.22 0.20 0.21 0.23 0.26 0.24 0.23 0.21 0.20 0.21 0.25 0.32 0.40 0.54 0.60 0.47 0.33 0.30 0.32 0.30 0.32 0.37